Home   Weather   Okayama   Past weeks

Flag for Japan Past Weather in Okayama, Japan — Yesterday and Last 2 Weeks

Now
79 °F

Fog.


Feels Like: 82 °F
Forecast: 81 / 92 °F
Wind: 3 mph from South

Location: Okayama Airport

Current Time: Jul 24, 2017 at 8:01:34 am

Latest Report: Jul 24, 2017 at 7:00 am


Visibility: 3 mi

Pressure: 29.71 "Hg

Humidity: 89%

Dew Point: 75 °F

Location of OkayamaLocation

Past Weather in Okayama — Graph

°F

Okayama Temperature Yesterday

Maximum temperature yesterday: 86 °F (at 1:00 pm)
Minimum temperature yesterday: 75 °F (at 6:15 am)
Average temperature yesterday: 82 °F

High & Low Weather Summary for the Past Weeks

 TemperatureHumidityPressure
High91 °F (Jul 22, 1:21 pm)100% (Jul 9, 7:00 am)29.98 "Hg (Jul 9, 7:00 am)
Low72 °F (Jul 9, 12:27 pm)52% (Jul 13, 4:00 pm)29.71 "Hg (Jul 19, 4:00 pm)
Average81 °F79%29.85 "Hg
* Reported Jul 9 7:00 am — Jul 24 7:00 am, Okayama. Weather by CustomWeather, © 2017

Note: Actual official high and low records may vary slightly from our data, if they occured in-between our weather recording intervals... More about our weather records

Advertising

Okayama Weather History for the Previous 24 Hours

Scroll right to see more
 ConditionsComfort  
Time TempWeatherWind HumidityBarometerVisibility
7:00 am
Mon, Jul 24
79 °FFog.3 mph89%29.71 "Hg3 mi
6:15 am77 °FScattered clouds.1 mph94%29.71 "Hg4 mi
9:00 pm
Sun, Jul 23
79 °FPassing clouds.3 mph89%29.71 "HgN/A
8:00 pm81 °FPassing clouds.3 mph84%29.71 "HgN/A
7:00 pm81 °FPartly sunny.5 mph84%29.71 "HgN/A
6:00 pm82 °FBroken clouds.6 mph79%29.71 "HgN/A
5:00 pm84 °FBroken clouds.6 mph79%29.71 "HgN/A
4:00 pm84 °FBroken clouds.6 mph79%29.71 "HgN/A
3:00 pm86 °FBroken clouds.7 mph75%29.71 "HgN/A
2:00 pm84 °FSprinkles. Broken clouds.5 mph74%29.74 "HgN/A
1:00 pm86 °FBroken clouds.5 mph75%29.77 "HgN/A
12:00 pm84 °FBroken clouds.6 mph79%29.77 "HgN/A
11:00 am84 °FBroken clouds.7 mph79%29.77 "HgN/A
10:00 am81 °FBroken clouds.6 mph84%29.80 "HgN/A
9:00 am81 °FBroken clouds.7 mph84%29.80 "Hg5 mi
8:00 am77 °FFog.2 mph94%29.80 "Hg3 mi
Weather by CustomWeather, © 2017

See weather overviewHow to use our weather pages